Location: Unspecified
(0.0000°N, 0.0000°E)
Time: 16:54:31
(UTC+00:00)

Tiros 1 despin weight - Visible Passes

Search period start: 30 April 2016 00:00
Search period end: 10 May 2016 00:00
Orbit: 596 x 645 km, 48.2° (Epoch: 29 April)

Date Brightness Start Highest point End Pass type
(mag) Time Alt. Az. Time Alt. Az. Time Alt. Az.
30 Apr ? 19:15:16 10° NW 19:19:43 58° SW 19:21:48 30° SSE visible
01 May ? 19:33:34 10° W 19:37:02 21° SW 19:39:12 16° SSW visible
03 May ? 04:39:27 10° SE 04:40:13 10° SE 04:40:58 10° ESE visible
03 May ? 18:26:01 10° WNW 18:30:09 35° SW 18:34:21 10° SSE visible
04 May ? 04:53:39 10° S 04:57:36 27° SE 05:01:29 10° ENE visible
04 May ? 18:45:16 10° W 18:47:30 13° SW 18:49:45 10° SSW visible
05 May ? 05:10:16 10° SW 05:14:54 78° SE 05:19:26 10° NE visible
06 May ? 03:50:13 17° SE 03:50:41 17° SE 03:53:38 10° E visible
06 May ? 05:27:54 10° WSW 05:32:09 36° NW 05:36:21 10° NNE visible
07 May ? 04:07:33 43° SSE 04:08:01 44° SE 04:12:22 10° ENE visible
08 May ? 04:24:50 60° W 04:25:17 64° NW 04:29:48 10° NNE visible
09 May ? 03:04:53 10° ENE 03:04:53 10° ENE 03:04:57 10° ENE visible
09 May ? 04:42:02 23° WNW 04:42:33 23° NW 04:46:11 10° N visible
